This is the latest recevied weather packets stored in our database for station/object XE2OR-10. If no packets are shown the sender has not sent any weather packets the latest 10 day(s).
| Time | Temp. | Humidity | Pressure | Rain* | Wind** | Luminosity | Snow |
|---|---|---|---|---|---|---|---|
| 1778024633 | 33.89° C | 58% | 1008.6 hPa | 0 mm | - | 111 W/m² | - |
| 1778024329 | 34.44° C | 58% | 1008.6 hPa | 0 mm | - | 126 W/m² | - |
| 1778024029 | 33.89° C | 58% | 1008.5 hPa | 0 mm | - | 212 W/m² | - |
| 1778023729 | 34.44° C | 58% | 1008.6 hPa | 0 mm | - | 232 W/m² | - |
| 1778023432 | 34.44° C | 58% | 1008.5 hPa | 0 mm | - | 318 W/m² | - |
| 1778023129 | 34.44° C | 58% | 1008.5 hPa | 0 mm | - | 359 W/m² | - |
| 1778022832 | 34.44° C | 59% | 1008.7 hPa | 0 mm | - | 236 W/m² | - |
| 1778022529 | 34.44° C | 58% | 1008.6 hPa | 0 mm | - | 341 W/m² | - |
| 1778022229 | 34.44° C | 58% | 1008.8 hPa | 0 mm | - | 414 W/m² | - |
| 1778021929 | 34.44° C | 59% | 1008.8 hPa | 0 mm | - | 340 W/m² | - |
| 1778021633 | 34.44° C | 59% | 1008.7 hPa | 0 mm | - | 288 W/m² | - |
| 1778021329 | 34.44° C | 58% | 1008.7 hPa | 0 mm | - | 258 W/m² | - |
| 1778021033 | 34.44° C | 59% | 1008.7 hPa | 0 mm | - | 292 W/m² | - |
| 1778020729 | 34.44° C | 58% | 1008.7 hPa | 0 mm | - | 383 W/m² | - |
| 1778020429 | 33.89° C | 58% | 1008.9 hPa | 0 mm | - | 283 W/m² | - |
| 1778020129 | 34.44° C | 59% | 1008.7 hPa | 0 mm | - | 347 W/m² | - |
| 1778019832 | 34.44° C | 60% | 1008.8 hPa | 0 mm | - | 354 W/m² | - |
| 1778019529 | 34.44° C | 59% | 1008.9 hPa | 0 mm | - | 376 W/m² | - |
| 1778019232 | 34.44° C | 59% | 1008.7 hPa | 0 mm | - | 414 W/m² | - |
| 1778018929 | 34.44° C | 59% | 1008.9 hPa | 0 mm | - | 334 W/m² | - |
| 1778018629 | 35° C | 58% | 1009 hPa | 0 mm | - | 400 W/m² | - |
| 1778018329 | 35° C | 58% | 1009 hPa | 0 mm | - | 541 W/m² | - |
| 1778018032 | 35° C | 59% | 1008.8 hPa | 0 mm | - | 449 W/m² | - |
| 1778017729 | 35° C | 59% | 1009 hPa | 0 mm | - | 465 W/m² | - |
| 1778017433 | 35.56° C | 59% | 1009 hPa | 0 mm | - | 471 W/m² | - |
* Rain latest hour (hover to see other rain measurements)
** Current wind speed in m/s (hover to see current wind gust speed)